Regional Weather Roundup
Issued by NWS

Home | Current Version | Previous Version | Graphics & Text | Print | Product List | Glossary On
Versions: 1 2 3 4 5 6 7 8 9 10 11 12 13 14 15 16 17 18 19 20 21 22 23 24 25 26 27 28 29 30 31 32 33 34 35 36 37 38 39 40 41 42 43 44 45 46 47 48 49 50
000
ASUS43 KOAX 170702
RWRNE

WEATHER ROUNDUP FOR NEBRASKA
NATIONAL WEATHER SERVICE OMAHA NE
100 AM CST SAT FEB 17 2018

NOTES: SATELLITE DATA IS BEING USED TO AUGMENT CLOUD COVER ABOVE
       12000 FEET.
       "FAIR" INDICATES FEW OR NO CLOUDS BELOW 12,000 FEET WITH NO
       SIGNIFICANT WEATHER AND/OR OBSTRUCTIONS TO VISIBILITY.


NEZ001>004-019>022-054>056-170800-
NEBRASKA PANHANDLE

CITY           SKY/WX    TMP DP  RH WIND       PRES   REMARKS
SCOTTSBLUFF    CLEAR     35  18  49 W17       29.84R WCI  25
ALLIANCE       MOCLDY    32  23  69 SW3       29.80S
CHADRON        MOCLDY    24  18  77 CALM      29.83R
GORDON         CLOUDY    30  25  82 NW8       29.82R WCI  23
KIMBALL        CLEAR     35  16  46 W33G45    29.84R WCI  20
SIDNEY         CLOUDY    37  18  46 NW24G32   29.86R WCI  26
$$

NEZ057>060-069>072-079>082-170800-
SOUTHWEST NEBRASKA

CITY           SKY/WX    TMP DP  RH WIND       PRES   REMARKS
NORTH PLATTE   CLOUDY    30  20  66 CALM      29.86F
IMPERIAL       CLOUDY    29  22  75 S5        29.83F WCI  24
LEXINGTON      CLOUDY    30  20  67 S13       29.90F WCI  20
MCCOOK         CLOUDY    29  20  69 S5        29.88S WCI  24
OGALLALA       MOCLDY    29  26  86 W5        29.84F WCI  24
$$

NEZ005>010-023>029-035>040-094-170800-
NORTH CENTRAL NEBRASKA

CITY           SKY/WX    TMP DP  RH WIND       PRES   REMARKS
VALENTINE      CLOUDY    33  24  69 NW5       29.80F WCI  29
AINSWORTH      CLOUDY    32  23  68 SW13      29.80R WCI  23
BROKEN BOW     CLOUDY    29  19  66 S9        29.86F WCI  20
O`NEILL        CLOUDY    30  21  67 S8        29.86F WCI  23
ORD            CLOUDY    28  18  66 SE7       29.89F WCI  21
THEDFORD       CLOUDY    32  22  66 SW17      29.81F WCI  21
$$

NEZ041-046>049-061>064-073>077-083>087-170800-
SOUTH CENTRAL NEBRASKA

CITY           SKY/WX    TMP DP  RH WIND       PRES   REMARKS
GRAND ISLAND   PTCLDY    27  16  63 S10       29.94  WCI  17
AURORA         CLOUDY    27  15  61 S10       29.95F WCI  17
HASTINGS       CLOUDY    28  15  58 S9        29.94F WCI  19
HEBRON         CLOUDY    27  16  62 SE7       30.01F WCI  19
HOLDREGE       CLOUDY    28  19  69 S10       29.90F WCI  19
KEARNEY        PTCLDY    28  18  66 S15       29.91F WCI  16
YORK           CLOUDY    27  16  63 CALM      29.97F
$$

NEZ011>018-030>034-042>045-170800-
NORTHEAST NEBRASKA

CITY           SKY/WX    TMP DP  RH WIND       PRES   REMARKS
NORFOLK        CLOUDY    27  15  61 S14       29.93F WCI  16
ALBION         CLOUDY    27  17  67 S8        29.93F WCI  19
BLAIR          CLOUDY    28  15  56 S14       30.01F WCI  17
COLUMBUS       PTCLDY    28  16  60 S10       29.98F WCI  19
FREMONT        CLOUDY    28  17  63 S8        30.01F WCI  19
TEKAMAH        CLOUDY    26  17  68 SE9       30.02F WCI  17
WAYNE          CLOUDY    27  15  59 S17       29.94F WCI  15
$$

NEZ050>053-065>068-078-088>093-170800-
SOUTHEAST NEBRASKA

CITY           SKY/WX    TMP DP  RH WIND       PRES   REMARKS
LINCOLN        CLOUDY    24  14  65 S8        30.03F WCI  15
OMAHA EPPLEY   CLOUDY    28  14  55 S14       30.04F WCI  17
BEATRICE       CLOUDY    29  14  52 S10       30.03F WCI  20
FALLS CITY     CLOUDY    26  10  50 S8        30.09F WCI  18
NEBRASKA CITY  CLOUDY    29  14  54 S9        30.06F WCI  20
PLATTSMOUTH    CLOUDY    29  13  52 SE8       30.05F WCI  21
$$

NEZ044-045-051>053-067-170800-
OMAHA AREA

CITY           SKY/WX    TMP DP  RH WIND       PRES   REMARKS
OMAHA EPPLEY   CLOUDY    28  14  55 S14       30.04F WCI  17
BLAIR          CLOUDY    28  15  56 S14       30.01F WCI  17
FREMONT        CLOUDY    28  17  63 S8        30.01F WCI  19
MILLARD        CLOUDY    29  16  57 SE6       30.04F WCI  23
OFFUTT AFB     CLOUDY    27  16  63 SE9       30.05F WCI  17
PLATTSMOUTH    CLOUDY    29  13  52 SE8       30.05F WCI  21
WAHOO          CLOUDY    28  17  62 SE8       30.02F WCI  20
$$




USA.gov is the U.S. government's official web portal to all federal, state and local government web resources and services.